Regional Weather Roundup
Issued by NWS

Home | Current Version | Previous Version | Graphics & Text | Print | Product List | Glossary On
Versions: 1 2 3 4 5 6 7 8 9 10 11 12 13 14 15 16 17 18 19 20 21 22 23 24 25 26 27 28 29 30 31 32 33 34 35 36 37 38 39 40 41 42 43 44 45 46 47 48 49 50
000
ASUS43 KBIS 080210
RWRND

NORTH DAKOTA REGIONAL WEATHER ROUNDUP
NATIONAL WEATHER SERVICE BISMARCK ND
900 PM CDT TUE JUL 07 2015

NOTE: "FAIR" INDICATES FEW OR NO CLOUDS BELOW 12,000 FEET WITH NO
SIGNIFICANT WEATHER AND/OR OBSTRUCTIONS TO VISIBILITY.


NDZ001>003-009>011-017-080300-
NORTHWEST NORTH DAKOTA

CITY           SKY/WX    TMP DP  RH WIND       PRES   REMARKS
WILLISTON      CLEAR     74  51  44 NE3       29.93F
MINOT          TSTM      58  57  97 N6        29.98R VSB 3/4
MINOT AFB      TSTM      61  61 100 MISG      29.95F
$$

NDZ018>021-031>035-040>046-080300-
SOUTHWEST NORTH DAKOTA

CITY           SKY/WX    TMP DP  RH WIND       PRES   REMARKS
BISMARCK       CLOUDY    69  56  62 SE8       29.98F
DICKINSON      CLOUDY    63  59  87 NE7       29.96S
GARRISON         N/A     70  58  65 S14       29.95F
HETTINGER ARPT MOCLDY    61  56  83 SE14      29.98R
$$

NDZ004>008-012>016-024-026-027-054-080300-
NORTHEAST NORTH DAKOTA

CITY           SKY/WX    TMP DP  RH WIND       PRES   REMARKS
GRAND FORKS    PTCLDY    65  49  56 S7        30.00F
GRND FRKS AFB  CLEAR     64  49  56 S8        30.00F
DEVILS LAKE    CLEAR     70  52  52 S9        29.96F
$$

NDZ022-023-025-028>030-036>039-047>053-080300-
SOUTHEAST NORTH DAKOTA

CITY           SKY/WX    TMP DP  RH WIND       PRES   REMARKS
FARGO          CLEAR     66  46  48 S7        30.05S
JAMESTOWN      PTCLDY    66  49  54 S8        30.02S
$$



USA.gov is the U.S. government's official web portal to all federal, state and local government web resources and services.